Hourly Data Report for October 27, 2013

All times are specified in Local Standard Time (LST). Add 1 hour to adjust for Daylight Saving Time where and when it is observed.

SAINT JOHN A
NEW BRUNSWICK

45°18'58.000" N
65°53'24.000" W
108.80 m
8104901
71609
YSJ

Download Data

Hourly Data (October 2013)
Hourly Data Report for October 27, 2013
Temp Definition
°C
Dew Point Temp Definition
°C
Rel Hum Definition
%
Wind Dir Definition
10's deg

Wind Spd Definition
km/h
Visibility Definition
km
Stn Press Definition
kPa
Hmdx Definition


Wind Chill Definition


Weather Definition


TIME
00:00 Legend Double Dagger 4.1 3.7 97 6 5 16.1 99.97     Rain Showers
01:00 Legend Double Dagger 4.2 3.9 98 7 8 19.3 99.93     LegendNANA
02:00 Legend Double Dagger 4.3 3.9 97 2 7 24.1 99.89     Cloudy
03:00 Legend Double Dagger 4.6 4.2 97 2 3 24.1 99.88     LegendNANA
04:00 Legend Double Dagger 3.9 3.5 97 9 4 24.1 99.83     LegendNANA
05:00 Legend Double Dagger 3.8 3.5 98 8 9 24.1 99.73     Cloudy
06:00 Legend Double Dagger 3.7 3.4 98 20 5 24.1 99.73     LegendNANA
07:00 Legend Double Dagger 4.4 3.1 91 31 1 24.1 99.68     Rain Showers
08:00 Legend Double Dagger 5.2 4.2 93 14 4 24.1 99.66     Rain Showers
09:00 Legend Double Dagger 6.7 5.8 94 17 17 24.1 99.58     Rain
10:00 Legend Double Dagger 6.1 5.4 95 27 8 9.7 99.57     Rain,Fog
11:00 Legend Double Dagger 6.1 5.5 96 30 4 9.7 99.53     Rain,Fog
12:00 Legend Double Dagger 6.1 5.5 96 32 12 16.1 99.45     Rain
13:00 Legend Double Dagger 6.7 5.2 90 30 12 24.1 99.41     LegendNANA
14:00 Legend Double Dagger 6.6 5.4 92 32 14 24.1 99.45     Mostly Cloudy
15:00 Legend Double Dagger 7.1 4.6 84 30 9 24.1 99.50     LegendNANA
16:00 Legend Double Dagger 7.1 4.8 85 25 7 24.1 99.53     LegendNANA
17:00 Legend Double Dagger 6.5 4.7 88 23 7 24.1 99.57     Mainly Clear
18:00 Legend Double Dagger 3.2 2.9 98 18 3 24.1 99.62     Fog
19:00 Legend Double Dagger 2.2 2.1 99 18 3 24.1 99.68     Fog
20:00 Legend Double Dagger 1.5 1.5 100 1 3 24.1 99.69     Fog
21:00 Legend Double Dagger 2.2 2.2 100   0 24.1 99.72     Fog
22:00 Legend Double Dagger 2.7 2.6 99 5 1 24.1 99.70     Fog
23:00 Legend Double Dagger 5.7 4.7 93 30 23 12.9 99.76     Rain Showers

Notes on Data Quality.

Legend

  • E = Estimated
  • M = Missing
  • NA = Not Available
  • ‡ = Partner data that is not subject to review by the National Climate Archives
Date modified: